Time,TemperatureF,DewpointF,PressureIn,WindDirection,WindDirectionDegrees,WindSpeedMPH,WindSpeedGustMPH,Humidity,HourlyPrecipIn,Conditions,Clouds,dailyrainin,SoftwareType,DateUTC
2013-02-05 00:05:00,25.4,14.0,30.44,WSW,238,0.0,-999.0,61,-99.99,,,0.00,weatherlink.com 1.10,2013-02-05 07:05:00,
2013-02-05 00:20:00,25.7,13.0,30.43,WSW,238,0.0,-999.0,58,-99.99,,,0.00,weatherlink.com 1.10,2013-02-05 07:20:00,
2013-02-05 00:35:00,25.4,11.0,30.43,WSW,238,1.0,-999.0,55,-99.99,,,0.00,weatherlink.com 1.10,2013-02-05 07:35:00,
2013-02-05 00:50:00,25.1,10.0,30.42,WSW,238,0.0,-999.0,54,-99.99,,,0.00,weatherlink.com 1.10,2013-02-05 07:50:00,
2013-02-05 01:05:00,24.7,12.0,30.42,WSW,238,0.0,-999.0,58,-99.99,,,0.00,weatherlink.com 1.10,2013-02-05 08:05:00,
2013-02-05 01:20:00,25.0,10.0,30.41,WSW,238,0.0,-999.0,54,-99.99,,,0.00,weatherlink.com 1.10,2013-02-05 08:20:00,
2013-02-05 01:35:00,24.1,13.0,30.41,WSW,238,1.0,-999.0,62,-99.99,,,0.00,weatherlink.com 1.10,2013-02-05 08:35:00,
2013-02-05 01:50:00,24.7,10.0,30.42,WSW,238,0.0,-999.0,54,-99.99,,,0.00,weatherlink.com 1.10,2013-02-05 08:50:00,
2013-02-05 02:05:00,24.4,13.0,30.43,WSW,238,0.0,-999.0,61,-99.99,,,0.00,weatherlink.com 1.10,2013-02-05 09:05:00,
2013-02-05 02:20:00,23.5,12.0,30.42,WSW,238,0.0,-999.0,62,-99.99,,,0.00,weatherlink.com 1.10,2013-02-05 09:20:00,
2013-02-05 02:35:00,23.8,12.0,30.42,WSW,238,0.0,-999.0,60,-99.99,,,0.00,weatherlink.com 1.10,2013-02-05 09:35:00,
2013-02-05 02:50:00,23.9,11.0,30.42,WSW,238,0.0,-999.0,57,-99.99,,,0.00,weatherlink.com 1.10,2013-02-05 09:50:00,
2013-02-05 03:05:00,24.2,12.0,30.44,WSW,238,0.0,-999.0,59,-99.99,,,0.00,weatherlink.com 1.10,2013-02-05 10:05:00,
2013-02-05 03:20:00,24.1,11.0,30.43,WSW,238,0.0,-999.0,58,-99.99,,,0.00,weatherlink.com 1.10,2013-02-05 10:20:00,
2013-02-05 03:35:00,23.2,12.0,30.44,WSW,238,0.0,-999.0,62,-99.99,,,0.00,weatherlink.com 1.10,2013-02-05 10:35:00,
2013-02-05 03:50:00,22.7,13.0,30.44,WSW,238,0.0,-999.0,65,-99.99,,,0.00,weatherlink.com 1.10,2013-02-05 10:50:00,
2013-02-05 04:05:00,21.8,13.0,30.51,WSW,238,0.0,-999.0,68,-99.99,,,0.00,weatherlink.com 1.10,2013-02-05 11:05:00,
2013-02-05 04:20:00,21.9,12.0,30.51,WSW,238,0.0,-999.0,66,-99.99,,,0.00,weatherlink.com 1.10,2013-02-05 11:20:00,
2013-02-05 04:35:00,22.5,12.0,30.51,WSW,238,0.0,-999.0,63,-99.99,,,0.00,weatherlink.com 1.10,2013-02-05 11:35:00,
2013-02-05 04:50:00,23.5,13.0,30.50,WSW,238,0.0,-999.0,63,-99.99,,,0.00,weatherlink.com 1.10,2013-02-05 11:50:00,
2013-02-05 05:05:00,23.3,12.0,30.54,WSW,238,0.0,-999.0,61,-99.99,,,0.00,weatherlink.com 1.10,2013-02-05 12:05:00,
2013-02-05 05:20:00,23.9,12.0,30.52,WSW,238,0.0,-999.0,61,-99.99,,,0.00,weatherlink.com 1.10,2013-02-05 12:20:00,
2013-02-05 05:35:00,23.3,12.0,30.54,WSW,238,0.0,-999.0,63,-99.99,,,0.00,weatherlink.com 1.10,2013-02-05 12:35:00,
2013-02-05 05:50:00,22.9,12.0,30.54,WSW,238,0.0,-999.0,63,-99.99,,,0.00,weatherlink.com 1.10,2013-02-05 12:50:00,
2013-02-05 06:05:00,23.5,13.0,30.54,WSW,238,0.0,-999.0,63,-99.99,,,0.00,weatherlink.com 1.10,2013-02-05 13:05:00,
2013-02-05 06:20:00,23.2,11.0,30.54,WSW,238,0.0,-999.0,61,-99.99,,,0.00,weatherlink.com 1.10,2013-02-05 13:20:00,
2013-02-05 06:35:00,22.4,13.0,30.54,WSW,238,0.0,-999.0,66,-99.99,,,0.00,weatherlink.com 1.10,2013-02-05 13:35:00,
2013-02-05 06:50:00,22.1,13.0,30.57,WSW,238,0.0,-999.0,67,-99.99,,,0.00,weatherlink.com 1.10,2013-02-05 13:50:00,
2013-02-05 07:05:00,21.9,12.0,30.57,WSW,238,0.0,-999.0,66,-99.99,,,0.00,weatherlink.com 1.10,2013-02-05 14:05:00,
2013-02-05 07:20:00,22.1,12.0,30.58,WSW,238,0.0,-999.0,66,-99.99,,,0.00,weatherlink.com 1.10,2013-02-05 14:20:00,
2013-02-05 07:35:00,22.7,12.0,30.58,WSW,238,1.0,-999.0,64,-99.99,,,0.00,weatherlink.com 1.10,2013-02-05 14:35:00,
2013-02-05 07:50:00,24.7,13.0,30.57,WSW,238,0.0,-999.0,62,-99.99,,,0.00,weatherlink.com 1.10,2013-02-05 14:50:00,
2013-02-05 08:05:00,29.4,14.0,30.53,WSW,238,0.0,-999.0,53,-99.99,,,0.00,weatherlink.com 1.10,2013-02-05 15:05:00,
2013-02-05 08:20:00,32.7,12.0,30.50,WSW,238,2.0,-999.0,42,-99.99,,,0.00,weatherlink.com 1.10,2013-02-05 15:20:00,
2013-02-05 08:35:00,32.7,13.0,30.50,ESE,121,0.0,-999.0,44,-99.99,,,0.00,weatherlink.com 1.10,2013-02-05 15:35:00,
2013-02-05 08:50:00,32.2,11.0,30.52,ENE,73,0.0,-999.0,42,-99.99,,,0.00,weatherlink.com 1.10,2013-02-05 15:50:00,
2013-02-05 09:05:00,34.1,13.0,30.50,ENE,73,0.0,-999.0,41,-99.99,,,0.00,weatherlink.com 1.10,2013-02-05 16:05:00,
2013-02-05 09:20:00,35.6,12.0,30.48,ESE,105,0.0,-999.0,37,-99.99,,,0.00,weatherlink.com 1.10,2013-02-05 16:20:00,
2013-02-05 09:35:00,36.0,11.0,30.48,ESE,118,0.0,-999.0,36,-99.99,,,0.00,weatherlink.com 1.10,2013-02-05 16:35:00,
2013-02-05 09:50:00,37.3,14.0,30.48,ESE,119,0.0,-999.0,39,-99.99,,,0.00,weatherlink.com 1.10,2013-02-05 16:50:00,
2013-02-05 10:05:00,38.5,15.0,30.46,ESE,118,1.0,-999.0,38,-99.99,,,0.00,weatherlink.com 1.10,2013-02-05 17:05:00,
2013-02-05 10:20:00,35.5,14.0,30.48,South,170,5.0,-999.0,41,-99.99,,,0.00,weatherlink.com 1.10,2013-02-05 17:20:00,
2013-02-05 10:35:00,38.6,16.0,30.46,SE,141,0.0,-999.0,40,-99.99,,,0.00,weatherlink.com 1.10,2013-02-05 17:35:00,
2013-02-05 10:50:00,40.3,15.0,30.44,SE,142,0.0,-999.0,36,-99.99,,,0.00,weatherlink.com 1.10,2013-02-05 17:50:00,
2013-02-05 11:05:00,41.3,16.0,30.44,SE,138,1.0,-999.0,36,-99.99,,,0.00,weatherlink.com 1.10,2013-02-05 18:05:00,
2013-02-05 11:21:00,41.9,17.0,30.43,ESE,119,0.0,-999.0,36,-99.99,,,0.00,weatherlink.com 1.10,2013-02-05 18:21:00,
2013-02-05 11:35:00,42.8,17.0,30.40,ESE,117,0.0,-999.0,35,-99.99,,,0.00,weatherlink.com 1.10,2013-02-05 18:35:00,
2013-02-05 11:50:00,44.5,18.0,30.39,SSE,152,2.0,-999.0,35,-99.99,,,0.00,weatherlink.com 1.10,2013-02-05 18:50:00,
2013-02-05 12:05:00,44.1,19.0,30.38,SSE,167,0.0,-999.0,37,-99.99,,,0.00,weatherlink.com 1.10,2013-02-05 19:05:00,
2013-02-05 12:20:00,44.6,24.0,30.36,South,182,5.0,-999.0,44,-99.99,,,0.00,weatherlink.com 1.10,2013-02-05 19:20:00,
2013-02-05 12:35:00,43.1,23.0,30.37,SSW,193,2.0,-999.0,46,-99.99,,,0.00,weatherlink.com 1.10,2013-02-05 19:35:00,
2013-02-05 12:50:00,45.1,23.0,30.34,South,179,5.0,-999.0,42,-99.99,,,0.00,weatherlink.com 1.10,2013-02-05 19:50:00,
2013-02-05 13:05:00,43.6,22.0,30.34,South,175,2.0,-999.0,43,-99.99,,,0.00,weatherlink.com 1.10,2013-02-05 20:05:00,
2013-02-05 13:21:00,43.2,22.0,30.35,SSW,213,7.0,-999.0,44,-99.99,,,0.00,weatherlink.com 1.10,2013-02-05 20:21:00,
2013-02-05 13:35:00,43.6,20.0,30.35,South,186,6.0,-999.0,39,-99.99,,,0.00,weatherlink.com 1.10,2013-02-05 20:35:00,
2013-02-05 13:50:00,44.9,19.0,30.33,South,190,8.0,-999.0,35,-99.99,,,0.00,weatherlink.com 1.10,2013-02-05 20:50:00,
2013-02-05 14:06:00,45.8,18.0,30.35,SW,223,0.0,-999.0,33,-99.99,,,0.00,weatherlink.com 1.10,2013-02-05 21:06:00,
2013-02-05 14:20:00,45.7,19.0,30.32,South,191,2.0,-999.0,35,-99.99,,,0.00,weatherlink.com 1.10,2013-02-05 21:20:00,
2013-02-05 14:36:00,46.7,20.0,30.32,South,187,6.0,-999.0,35,-99.99,,,0.00,weatherlink.com 1.10,2013-02-05 21:36:00,
2013-02-05 14:50:00,45.7,20.0,30.32,West,261,2.0,-999.0,36,-99.99,,,0.00,weatherlink.com 1.10,2013-02-05 21:50:00,
2013-02-05 15:05:00,44.8,22.0,30.34,SSW,194,5.0,-999.0,41,-99.99,,,0.00,weatherlink.com 1.10,2013-02-05 22:05:00,
2013-02-05 15:20:00,47.0,23.0,30.34,SW,228,1.0,-999.0,39,-99.99,,,0.00,weatherlink.com 1.10,2013-02-05 22:20:00,
2013-02-05 15:35:00,49.4,23.0,30.30,WNW,286,2.0,-999.0,35,-99.99,,,0.00,weatherlink.com 1.10,2013-02-05 22:35:00,
2013-02-05 15:50:00,45.8,24.0,30.32,West,271,3.0,-999.0,42,-99.99,,,0.00,weatherlink.com 1.10,2013-02-05 22:50:00,
2013-02-05 16:05:00,42.8,24.0,30.35,West,268,3.0,-999.0,47,-99.99,,,0.00,weatherlink.com 1.10,2013-02-05 23:05:00,
2013-02-05 16:36:00,40.1,25.0,30.37,West,271,1.0,-999.0,55,-99.99,,,0.00,weatherlink.com 1.10,2013-02-05 23:36:00,
2013-02-05 16:50:00,39.6,25.0,30.37,West,271,1.0,-999.0,56,-99.99,,,0.00,weatherlink.com 1.10,2013-02-05 23:50:00,
2013-02-05 17:05:00,37.6,27.0,30.40,West,272,0.0,-999.0,65,-99.99,,,0.00,weatherlink.com 1.10,2013-02-06 00:05:00,
2013-02-05 17:20:00,36.0,26.0,30.42,West,272,0.0,-999.0,68,-99.99,,,0.00,weatherlink.com 1.10,2013-02-06 00:20:00,
2013-02-05 17:35:00,36.2,27.0,30.42,West,272,1.0,-999.0,68,-99.99,,,0.00,weatherlink.com 1.10,2013-02-06 00:35:00,
2013-02-05 17:50:00,35.8,27.0,30.43,West,272,0.0,-999.0,69,-99.99,,,0.00,weatherlink.com 1.10,2013-02-06 00:50:00,
2013-02-05 18:05:00,34.9,26.0,30.45,West,272,0.0,-999.0,71,-99.99,,,0.00,weatherlink.com 1.10,2013-02-06 01:05:00,
2013-02-05 18:21:00,34.7,26.0,30.45,West,272,0.0,-999.0,70,-99.99,,,0.00,weatherlink.com 1.10,2013-02-06 01:21:00,
2013-02-05 18:35:00,34.1,26.0,30.45,West,272,0.0,-999.0,72,-99.99,,,0.00,weatherlink.com 1.10,2013-02-06 01:35:00,
2013-02-05 18:51:00,33.7,26.0,30.46,West,272,0.0,-999.0,73,-99.99,,,0.00,weatherlink.com 1.10,2013-02-06 01:51:00,
2013-02-05 19:05:00,33.5,26.0,30.46,West,272,0.0,-999.0,73,-99.99,,,0.00,weatherlink.com 1.10,2013-02-06 02:05:00,
2013-02-05 19:21:00,33.4,26.0,30.44,West,272,0.0,-999.0,73,-99.99,,,0.00,weatherlink.com 1.10,2013-02-06 02:21:00,
2013-02-05 19:35:00,32.8,26.0,30.46,West,272,0.0,-999.0,76,-99.99,,,0.00,weatherlink.com 1.10,2013-02-06 02:35:00,
2013-02-05 19:50:00,32.1,26.0,30.46,West,272,0.0,-999.0,78,-99.99,,,0.00,weatherlink.com 1.10,2013-02-06 02:50:00,
2013-02-05 20:05:00,31.8,25.0,30.39,West,272,0.0,-999.0,77,-99.99,,,0.00,weatherlink.com 1.10,2013-02-06 03:05:00,
2013-02-05 20:20:00,32.4,26.0,30.39,West,272,0.0,-999.0,76,-99.99,,,0.00,weatherlink.com 1.10,2013-02-06 03:20:00,
2013-02-05 20:35:00,31.6,25.0,30.39,West,272,0.0,-999.0,78,-99.99,,,0.00,weatherlink.com 1.10,2013-02-06 03:35:00,
2013-02-05 20:51:00,30.9,25.0,30.41,West,272,0.0,-999.0,78,-99.99,,,0.00,weatherlink.com 1.10,2013-02-06 03:51:00,
2013-02-05 21:06:00,31.2,25.0,30.36,West,272,0.0,-999.0,77,-99.99,,,0.00,weatherlink.com 1.10,2013-02-06 04:06:00,
2013-02-05 21:21:00,30.7,25.0,30.36,West,272,0.0,-999.0,78,-99.99,,,0.00,weatherlink.com 1.10,2013-02-06 04:21:00,
2013-02-05 21:36:00,30.6,24.0,30.36,West,272,0.0,-999.0,77,-99.99,,,0.00,weatherlink.com 1.10,2013-02-06 04:36:00,
2013-02-05 21:50:00,30.1,24.0,30.38,West,272,0.0,-999.0,78,-99.99,,,0.00,weatherlink.com 1.10,2013-02-06 04:50:00,
2013-02-05 22:05:00,30.0,24.0,30.35,West,272,0.0,-999.0,78,-99.99,,,0.00,weatherlink.com 1.10,2013-02-06 05:05:00,
2013-02-05 22:20:00,29.8,24.0,30.34,West,272,0.0,-999.0,79,-99.99,,,0.00,weatherlink.com 1.10,2013-02-06 05:20:00,
2013-02-05 22:35:00,29.7,24.0,30.34,West,272,0.0,-999.0,78,-99.99,,,0.00,weatherlink.com 1.10,2013-02-06 05:35:00,
2013-02-05 22:50:00,29.4,23.0,30.34,West,272,1.0,-999.0,78,-99.99,,,0.00,weatherlink.com 1.10,2013-02-06 05:50:00,
2013-02-05 23:05:00,29.4,24.0,30.30,West,272,0.0,-999.0,79,-99.99,,,0.00,weatherlink.com 1.10,2013-02-06 06:05:00,
2013-02-05 23:20:00,29.3,23.0,30.32,West,272,0.0,-999.0,78,-99.99,,,0.00,weatherlink.com 1.10,2013-02-06 06:20:00,
2013-02-05 23:35:00,29.3,23.0,30.32,West,272,0.0,-999.0,77,-99.99,,,0.00,weatherlink.com 1.10,2013-02-06 06:35:00,
2013-02-05 23:50:00,28.8,23.0,30.31,West,272,0.0,-999.0,79,-99.99,,,0.00,weatherlink.com 1.10,2013-02-06 06:50:00,